Theta_e
306 305 303 302 303 304 304 305 306 306 307 307 306 307 308 308 306 306 309 312 311 308 308 310 310 310 310 307 306 306 306 306 306 307 307 306 306 306 305 305 305 305 305 305 305 305 305 305 305 305 305 305 305 305 305 305 305 306 306 306 306 306 306 306 306 306 308 309 312 315 317 319 321 322 322 322 322 321 320 318 318 317 316 315 315 315 315
305 304 303 303 303 304 304 305 306 306 306 307 306 307 308 307 307 307 307 311 313 309 308 310 309 306 306 305 305 306 306 306 306 307 306 305 304 304 303 302 302 302 303 303 303 303 303 303 302 302 302 302 302 303 303 303 303 304 304 305 305 306 306 306 306 306 306 306 307 307 309 311 314 316 319 320 321 321 320 319 317 316 315 315 315 315 315
304 304 304 303 303 304 304 304 304 304 305 306 305 305 305 305 306 305 305 308 310 307 306 307 304 302 303 304 306 307 306 306 307 306 305 303 302 301 301 301 301 300 301 300 301 301 301 301 301 301 301 301 301 301 301 301 301 301 302 302 303 303 304 304 305 305 305 306 306 306 306 305 306 307 309 312 315 318 320 320 319 317 316 315 315 315 314
303 303 303 304 303 303 303 303 303 303 304 305 304 304 305 305 305 306 305 306 306 305 306 305 303 302 304 306 308 307 306 306 306 305 303 302 301 301 300 300 300 300 300 300 300 300 300 300 300 300 300 300 300 300 300 300 300 300 300 300 301 301 301 302 302 303 304 304 305 305 305 305 305 304 304 306 310 315 318 319 320 318 316 316 315 314 313
302 302 303 303 302 302 303 303 304 304 305 305 304 305 305 306 306 306 305 305 305 305 304 304 304 305 305 307 308 307 306 307 305 303 302 301 301 301 300 300 300 300 300 300 300 300 300 300 300 300 300 300 300 300 300 300 300 300 300 300 300 300 300 301 301 301 302 302 303 303 304 304 304 304 303 304 307 311 314 316 319 318 316 316 315 314 313
301 301 301 301 302 303 303 302 302 303 304 304 304 305 305 304 304 304 303 303 303 302 303 304 306 306 305 305 305 304 305 306 304 301 302 302 301 301 301 300 300 300 300 300 300 300 300 300 300 299 299 299 299 299 299 299 300 300 300 300 300 300 300 300 300 301 301 301 301 302 302 303 303 303 303 303 305 310 314 316 318 318 316 315 314 313 313
300 299 300 301 302 302 302 302 301 301 301 302 303 303 303 303 303 303 302 302 303 304 304 305 305 305 304 303 302 302 303 305 303 302 302 302 301 301 301 301 301 301 301 301 300 300 300 300 300 300 299 299 299 299 299 299 299 299 299 300 300 300 300 300 300 300 301 301 301 301 302 302 302 303 303 303 305 309 313 316 317 317 317 315 313 313 312
299 299 300 301 301 301 301 302 303 302 302 302 302 303 303 302 302 302 303 303 304 305 305 304 304 304 303 302 301 302 303 305 304 302 302 302 302 302 302 301 301 301 301 301 301 300 300 300 300 299 299 299 299 299 299 299 299 299 299 299 299 299 300 300 300 300 300 301 301 301 302 302 302 303 303 303 304 308 312 315 317 317 316 315 313 312 311
299 298 299 300 300 301 301 302 303 303 303 303 303 302 302 301 301 302 303 303 304 305 304 303 303 304 303 302 302 301 302 303 303 302 302 302 302 302 302 302 301 301 301 301 301 301 301 300 300 299 299 299 299 299 299 299 299 299 299 299 300 300 300 300 300 300 301 302 302 302 302 302 302 302 302 303 305 308 312 315 316 316 315 313 312 311 310
298 298 299 300 301 301 301 302 302 302 302 303 302 302 302 301 300 301 302 301 302 303 303 302 303 304 303 303 302 301 301 302 302 302 302 302 302 302 302 301 301 301 301 301 301 301 301 300 300 299 299 299 299 299 300 300 300 300 300 299 299 300 300 300 300 301 303 303 303 303 303 303 303 303 303 304 306 310 313 314 315 315 314 312 311 310 308
298 299 300 300 300 301 301 302 302 301 301 301 301 302 302 301 300 300 301 301 302 302 302 302 303 303 302 302 303 302 301 302 302 302 302 302 302 301 301 301 300 300 300 301 301 301 301 301 300 300 299 299 300 300 300 300 300 300 300 300 300 301 301 301 302 302 303 304 305 304 304 304 304 305 305 306 308 311 313 314 314 314 312 311 310 308 306
299 299 300 299 299 300 301 302 302 301 300 300 302 304 303 300 300 300 301 302 302 301 301 301 302 302 302 302 302 302 301 300 300 300 301 301 301 301 301 300 300 300 300 300 300 300 300 300 300 300 299 300 300 300 300 301 301 301 300 300 301 302 302 302 303 303 304 305 305 305 305 306 306 306 307 307 309 311 313 314 313 311 311 310 308 306 304
299 299 300 299 299 300 301 301 301 300 300 301 303 303 300 298 299 300 300 300 300 300 300 301 302 301 301 301 300 300 299 299 299 299 300 300 300 300 300 300 300 300 300 299 300 300 300 300 300 300 300 300 300 301 301 301 301 301 301 301 302 303 303 303 303 304 305 305 306 306 306 307 308 308 308 309 310 312 313 313 311 309 308 307 305 303 302
298 298 299 299 299 300 301 300 300 300 300 301 301 299 297 297 299 300 300 299 299 298 299 300 300 300 299 299 299 299 298 298 298 298 298 299 299 300 300 300 300 300 300 300 300 301 301 301 301 300 300 301 301 301 301 302 302 302 302 303 303 303 304 304 304 305 305 306 306 306 306 307 308 308 309 310 311 312 312 310 308 307 306 304 303 303 301
297 297 298 299 299 300 300 299 299 299 300 299 298 297 297 297 298 298 299 299 298 298 299 299 299 299 299 299 299 298 298 298 298 298 298 298 298 299 300 300 300 300 300 301 301 301 301 301 301 301 302 302 302 302 301 302 302 303 303 303 304 304 305 305 305 305 305 306 306 306 307 307 308 309 310 310 311 310 309 308 307 305 304 302 301 300 298
297 297 298 299 299 299 298 297 298 299 299 298 297 297 297 297 297 298 299 299 298 298 298 298 298 298 298 298 298 298 298 298 297 297 297 297 298 298 299 300 300 300 300 300 301 301 301 301 301 302 302 302 302 302 302 302 303 303 303 304 304 305 305 305 305 305 305 305 305 306 307 308 309 310 310 309 308 307 306 306 305 303 300 298 297 295 294
297 297 297 298 298 298 297 297 297 298 298 297 297 296 297 297 297 297 298 298 298 297 297 297 297 297 298 298 298 297 297 297 297 297 297 297 297 298 298 299 300 300 299 300 300 300 300 301 302 302 302 302 302 302 302 303 303 303 304 304 304 304 305 304 305 305 305 305 306 307 308 309 310 309 308 306 305 304 303 302 300 298 297 295 295 294 293
297 297 297 297 297 297 297 296 296 296 296 297 296 296 296 297 297 297 297 297 296 296 296 297 297 297 297 297 297 297 297 297 297 297 298 298 298 298 298 298 298 299 299 299 299 299 300 301 301 302 302 302 302 303 303 303 303 304 304 304 304 304 303 304 304 304 305 306 307 308 309 309 308 306 304 303 302 300 299 298 296 295 295 294 293 292 291
296 296 296 296 297 297 297 296 296 296 296 296 296 296 296 296 296 296 296 296 296 296 296 296 297 297 297 297 298 298 297 298 298 298 298 298 298 298 298 298 298 299 299 299 300 299 299 300 301 302 302 302 303 302 303 303 303 304 304 303 303 303 303 304 305 305 306 307 307 307 306 305 304 302 301 300 298 297 297 296 295 293 293 292 291 291 291
295 296 296 297 297 296 296 296 296 296 296 296 295 296 296 296 296 296 296 296 296 296 296 296 297 297 298 298 298 298 298 298 298 298 298 298 298 298 298 299 300 300 300 300 300 300 300 301 301 302 302 303 303 302 303 303 303 303 303 303 302 303 304 305 305 305 305 305 304 303 301 300 299 298 298 297 296 295 294 293 293 292 293 293 293 293 292
295 295 296 296 296 296 296 296 296 296 295 295 295 296 296 296 296 296 296 296 296 296 297 297 297 297 298 298 298 298 298 298 298 298 298 298 298 299 300 300 301 301 301 301 300 301 301 301 302 302 303 303 303 302 302 302 302 302 302 303 303 303 304 304 304 303 302 300 299 298 297 297 297 296 296 295 294 293 293 293 294 294 295 295 295 294 294
295 295 295 296 295 295 296 296 296 296 296 295 295 296 296 296 296 296 296 297 297 297 297 297 298 298 298 298 298 298 298 298 298 298 299 299 299 300 300 301 301 301 301 301 301 301 302 302 302 303 303 302 302 302 301 301 301 301 302 302 302 302 302 301 300 299 297 297 296 297 296 296 295 295 294 293 293 294 295 295 296 296 296 295 295 295 294
295 295 295 296 295 295 296 296 295 296 295 295 295 296 296 296 296 296 296 297 297 298 297 297 297 298 298 298 298 298 299 299 299 299 300 300 300 301 301 301 301 301 301 301 301 301 301 302 302 302 302 302 302 300 300 299 300 300 301 301 300 299 299 298 298 297 297 298 298 298 297 295 294 294 294 294 295 296 296 296 296 296 295 295 295 294 294
295 295 295 295 295 295 295 295 295 295 295 295 295 295 296 296 296 296 296 297 297 298 298 297 297 298 298 298 299 299 299 300 300 300 300 301 301 301 301 301 301 301 301 301 301 301 301 302 302 302 302 302 301 300 299 299 299 299 299 299 299 299 299 299 299 299 299 299 298 296 295 295 295 295 296 296 296 295 295 296 295 295 295 295 295 294 293
294 295 294 294 294 294 294 294 295 295 296 296 295 295 295 295 296 296 296 297 297 298 298 298 298 298 299 299 299 299 299 299 299 300 300 301 301 301 301 301 301 300 300 300 300 300 301 302 302 302 302 301 301 299 299 299 299 299 300 300 300 300 300 300 299 299 298 297 296 295 295 295 296 296 296 296 296 295 295 295 295 295 295 295 295 294 293
294 294 294 294 294 294 294 295 295 296 296 296 296 295 295 295 295 295 296 297 298 298 298 298 298 298 299 299 298 299 299 299 299 299 300 300 300 300 299 299 299 299 300 300 300 301 301 302 302 301 301 302 301 300 299 299 299 300 300 300 300 299 299 298 298 297 297 296 296 296 296 296 296 296 296 296 296 296 295 295 295 295 295 295 295 295 294
294 294 294 295 295 295 295 296 296 296 296 296 296 295 295 295 295 296 297 298 298 298 298 298 298 298 298 298 298 298 298 298 299 299 300 300 300 299 298 298 298 299 300 300 301 301 302 302 302 301 302 301 301 300 300 299 299 300 300 299 299 298 298 298 297 297 297 296 296 296 296 296 296 296 296 296 296 296 296 296 295 295 295 295 295 295 294
295 295 295 295 296 296 295 295 295 295 296 296 296 295 295 295 296 297 297 298 298 298 298 298 297 297 297 297 297 297 297 297 298 299 299 299 299 298 298 298 298 299 300 301 301 302 302 302 302 302 302 301 300 300 299 299 299 299 299 299 298 298 298 298 298 297 296 295 296 296 296 296 296 295 295 296 296 296 296 296 295 296 295 295 295 295 294
295 295 295 295 295 294 294 294 294 295 295 295 295 296 296 296 296 296 297 297 297 297 297 297 297 297 297 297 297 297 297 297 298 298 298 299 298 298 298 298 298 299 300 301 302 303 302 302 302 301 300 300 299 299 299 299 298 299 299 298 298 298 298 298 298 297 296 295 296 296 295 295 295 295 296 296 296 296 296 296 296 296 296 296 296 295 295
295 295 294 294 293 293 293 293 294 294 294 294 295 295 296 296 296 296 296 297 298 298 298 298 298 298 297 297 297 297 297 297 297 297 297 297 297 297 297 298 298 300 300 301 302 301 301 301 301 300 300 299 299 299 299 299 299 299 298 298 298 298 298 298 298 297 295 295 295 295 295 296 296 296 296 296 296 296 296 296 296 296 296 296 296 295 295
294 294 293 293 293 293 293 294 294 294 294 294 294 295 295 296 296 296 297 297 298 298 297 298 298 298 297 297 297 296 296 296 295 295 295 295 295 296 297 298 299 299 300 300 299 299 300 300 300 300 299 299 299 299 299 299 299 299 299 299 298 298 298 298 298 297 296 295 295 295 296 296 296 296 296 296 296 296 296 296 296 296 296 296 296 295 295
293 293 293 293 293 294 294 294 294 294 294 294 295 295 295 296 296 297 297 297 297 297 296 296 296 296 295 295 295 294 294 294 294 294 293 294 294 295 296 298 299 299 299 299 298 299 300 300 300 300 300 300 300 299 299 299 299 299 299 299 299 298 298 298 298 298 297 296 295 295 296 296 296 296 296 296 296 296 297 297 296 296 296 296 296 296 295
293 294 294 294 294 294 294 294 294 294 294 294 294 294 294 295 296 296 295 295 295 295 294 294 293 293 293 293 293 293 294 294 294 293 293 293 293 294 295 296 298 298 298 299 299 300 300 300 300 301 300 300 300 300 300 300 299 299 299 299 298 298 298 298 298 298 298 297 296 296 296 296 296 296 296 297 297 297 297 296 296 296 296 296 296 296 295
294 294 294 294 294 294 294 294 294 294 294 294 293 293 294 294 294 294 294 294 293 293 293 292 292 292 292 293 293 293 294 294 294 293 293 293 293 294 295 296 298 299 299 299 300 300 300 300 301 301 300 300 301 301 300 300 300 299 299 299 299 298 299 299 299 298 297 296 296 296 297 297 296 296 297 297 297 297 296 296 296 296 296 297 296 296 295
294 294 294 294 294 294 294 293 293 294 293 293 292 292 293 293 293 293 293 292 292 292 292 292 292 292 293 293 293 293 294 294 294 294 293 293 293 294 296 297 299 300 300 300 300 300 300 301 301 301 301 301 300 300 300 300 300 299 299 299 299 299 300 299 299 298 297 296 297 297 297 296 296 297 297 297 297 296 296 296 296 297 297 297 296 296 295
294 294 294 294 294 294 293 293 293 293 293 292 292 292 292 292 292 292 292 292 292 292 292 292 293 293 293 293 293 293 294 294 294 295 295 295 295 296 298 299 299 299 300 299 299 299 299 300 300 300 301 300 300 300 300 299 299 299 299 299 300 300 300 300 299 298 297 297 297 297 297 297 297 297 297 297 297 296 296 296 296 297 297 297 296 296 295
294 294 294 294 293 293 293 293 293 293 293 293 293 293 293 292 292 292 292 292 292 292 292 292 292 292 292 292 293 293 293 294 295 295 296 296 297 298 298 298 298 298 298 298 297 297 298 298 298 298 299 299 300 299 299 299 299 299 300 300 300 300 300 299 299 298 298 298 297 297 297 297 297 297 297 297 296 296 296 296 297 297 297 297 297 296 295
293 293 293 293 293 293 293 293 293 293 293 293 293 292 292 292 292 292 292 292 292 291 291 291 291 291 291 291 291 291 292 292 293 294 294 294 295 296 296 295 295 296 296 295 296 297 298 298 298 299 299 299 299 299 299 299 300 300 300 300 300 300 299 299 298 298 298 297 297 297 297 297 297 297 297 296 296 296 296 297 297 297 296 296 297 296 296
293 293 293 293 293 293 293 293 293 293 293 293 293 293 292 292 292 292 292 292 292 292 291 291 291 291 290 290 289 290 290 290 291 292 292 292 293 293 294 294 294 294 294 294 294 295 296 297 298 298 299 299 299 299 300 300 299 299 299 299 300 300 299 299 298 298 297 297 297 297 297 297 297 297 296 296 296 296 297 297 296 295 295 295 296 296 296
293 293 293 293 293 293 293 293 293 293 293 293 293 293 293 293 293 293 292 292 292 292 292 292 291 291 291 290 290 289 289 289 290 290 291 291 291 291 292 293 293 293 293 293 294 294 295 295 295 295 296 296 296 297 298 299 299 299 299 299 299 299 299 298 298 297 297 297 297 297 297 297 296 296 296 296 296 296 296 295 294 294 294 296 296 296 296
293 293 294 294 293 293 293 293 293 293 293 293 293 293 292 292 292 292 291 291 291 291 291 291 291 290 290 290 290 290 290 290 290 290 290 290 290 290 291 291 292 292 292 292 292 293 293 294 295 295 296 296 296 296 297 297 298 298 298 298 297 298 298 298 298 297 297 297 297 297 296 296 296 296 296 296 296 295 294 293 293 294 295 296 296 296 296
293 294 294 293 293 293 292 293 293 293 293 293 293 292 291 290 290 289 289 289 289 289 289 289 289 289 288 289 289 289 290 290 290 290 290 290 290 290 290 290 290 290 291 291 290 290 290 291 292 292 293 294 295 295 296 297 297 297 297 297 297 297 297 297 297 297 297 297 296 296 296 296 296 296 295 295 294 293 293 293 294 294 295 295 296 296 296
294 294 294 293 293 293 293 293 294 293 293 292 292 291 289 288 288 288 287 287 287 287 287 287 287 287 287 288 288 288 289 289 289 289 290 289 289 289 289 288 288 289 289 289 289 289 290 290 290 290 290 291 291 292 293 294 295 296 296 297 296 296 296 297 297 296 296 296 296 296 296 296 295 294 294 293 293 293 293 294 294 294 294 295 295 295 295
294 294 294 293 293 293 294 294 294 293 293 292 291 289 288 288 287 287 287 287 286 286 286 286 286 286 286 287 287 287 287 287 287 288 288 288 288 288 287 287 288 288 288 288 289 289 289 289 289 289 289 290 290 290 290 291 291 292 293 294 294 294 294 295 295 295 295 295 295 294 294 293 293 293 293 293 293 293 293 293 294 294 294 294 294 294 294
294 294 294 294 294 294 294 294 294 293 293 291 290 288 288 288 287 287 287 286 286 286 286 286 286 285 285 286 286 286 286 286 287 287 287 287 287 286 286 287 287 288 288 288 288 289 289 289 289 289 289 289 289 289 289 289 290 290 290 290 291 291 291 291 292 292 292 292 292 292 292 292 292 293 293 293 293 292 292 292 292 292 292 292 292 293 293
294 294 294 294 294 294 294 294 294 293 291 290 289 288 288 287 287 287 286 286 286 286 286 285 285 285 285 285 285 285 286 286 286 286 286 286 285 285 285 286 287 287 287 287 288 288 288 288 288 289 289 289 289 289 289 289 289 289 290 290 290 290 290 290 290 290 291 291 291 291 291 291 291 291 291 290 290 289 289 289 289 289 289 290 291 292 293
294 294 294 294 294 294 294 293 292 291 290 289 288 288 287 287 287 287 286 286 286 286 285 285 285 285 284 284 285 285 285 285 285 285 285 285 285 285 285 285 286 286 286 287 287 287 288 288 288 288 288 288 288 289 288 288 288 289 289 289 289 289 289 290 290 290 289 289 289 289 288 288 288 288 288 287 287 287 287 287 287 288 289 290 291 292 292
292 293 293 293 294 294 293 291 290 290 289 289 288 288 287 287 287 286 286 286 286 285 285 285 284 284 284 284 284 284 284 284 284 284 284 284 284 284 284 285 285 285 285 286 286 286 287 287 287 287 287 288 288 288 288 288 288 288 288 288 289 288 288 288 288 288 288 287 287 286 286 286 287 287 287 286 286 287 287 287 287 288 289 290 291 291 291
290 290 290 291 292 291 290 290 290 289 289 289 288 288 288 287 287 286 286 286 285 285 285 285 284 284 284 284 284 284 284 284 283 283 283 283 283 284 284 284 284 284 284 284 285 285 285 286 286 286 286 287 287 287 287 287 287 287 287 287 287 287 286 286 286 286 286 286 285 285 285 286 286 286 286 287 287 287 287 287 288 288 289 289 290 290 290
291 290 290 290 290 290 290 290 289 289 289 289 289 288 288 287 287 286 286 285 285 285 285 285 285 284 284 284 284 284 284 283 283 283 282 282 283 283 283 283 283 283 283 283 284 284 284 284 284 285 285 285 286 286 286 286 286 286 286 286 285 285 285 285 285 285 285 285 285 285 285 285 285 286 286 287 287 287 288 288 288 288 288 288 288 288 289
291 291 291 290 290 290 290 290 289 289 289 289 289 288 288 287 287 286 286 285 285 285 285 284 284 284 284 284 283 283 283 282 282 282 282 282 282 282 282 282 282 282 282 283 283 283 283 283 283 283 284 284 285 285 285 285 285 285 284 284 284 284 284 285 285 285 285 285 285 285 285 285 286 286 287 287 287 287 288 288 288 288 287 288 288 288 289
293 292 291 291 290 290 289 289 289 289 289 289 289 288 287 287 287 286 286 285 285 285 284 284 284 283 283 283 283 282 282 281 281 282 282 282 282 282 282 282 282 282 282 282 282 282 282 282 282 282 282 282 283 283 283 283 283 283 283 283 283 283 284 284 285 285 285 285 285 285 285 285 286 286 287 287 288 288 288 288 288 288 288 288 288 289 289
Wind_Speed
3 2 3 2 3 4 4 4 6 6 4 4 6 7 4 5 7 6 5 8 8 6 5 7 7 6 7 7 8 9 11 12 12 12 11 9 8 7 7 8 8 9 9 9 10 10 10 11 11 11 11 11 11 11 10 10 10 9 9 8 8 8 8 8 8 8 7 8 9 11 14 16 17 19 23 26 28 30 31 31 32 32 30 28 29 29 29
3 4 3 2 3 4 4 6 7 6 6 7 8 8 5 6 9 4 2 7 9 5 5 5 3 3 5 6 8 10 10 11 12 12 10 8 7 7 7 8 8 9 9 10 11 11 12 13 14 14 15 15 16 16 16 15 15 15 14 13 13 12 12 12 12 12 12 12 11 11 12 13 13 15 19 22 22 23 24 26 29 31 29 29 32 33 32
4 3 3 4 6 6 8 9 6 5 7 8 7 6 3 4 7 4 3 7 7 4 5 5 3 2 4 5 7 9 9 11 13 11 9 7 7 7 7 8 8 9 10 10 11 12 13 14 15 16 17 17 18 19 19 19 20 19 18 18 17 17 17 16 16 16 16 16 16 16 16 16 15 14 15 16 16 17 19 22 24 27 29 31 35 37 36
5 4 7 9 6 6 10 9 7 8 10 7 5 5 5 6 8 7 7 7 6 4 5 6 6 6 6 6 7 8 9 12 12 9 7 6 6 7 8 9 10 10 11 11 12 12 13 14 14 16 17 18 19 20 21 22 22 22 22 22 22 21 20 20 19 19 19 19 20 20 20 19 19 18 18 16 14 15 17 19 20 24 28 32 35 37 36
4 3 4 4 4 6 9 6 6 11 11 8 7 6 6 8 8 7 6 5 3 2 3 5 5 5 5 5 6 7 9 11 10 7 6 6 7 8 10 11 12 12 13 14 14 14 14 15 15 16 17 19 20 21 22 23 24 24 24 24 24 24 23 23 22 21 21 21 22 22 22 22 22 21 21 20 17 15 16 16 17 22 28 33 35 36 35
3 0 2 1 4 7 4 1 2 7 8 9 10 7 4 4 4 4 4 3 2 1 2 3 2 3 2 2 3 4 6 9 9 6 5 6 8 10 12 13 14 15 15 16 16 16 16 17 17 18 18 19 21 22 23 24 24 25 25 26 26 25 25 25 24 24 23 23 23 22 22 22 23 23 22 22 20 16 14 16 18 22 28 34 36 35 34
2 1 2 3 6 5 2 2 1 4 5 6 7 3 3 3 3 4 5 4 2 1 2 2 4 4 4 3 3 2 4 9 10 4 5 8 10 13 14 16 17 18 18 19 19 19 19 19 20 20 20 21 22 23 24 25 25 25 26 27 27 26 26 25 24 24 25 24 24 23 23 22 23 23 23 23 21 18 15 16 19 22 28 34 35 34 33
1 1 3 4 3 4 5 3 1 2 2 2 2 2 4 6 4 3 2 2 1 1 2 3 4 4 5 5 6 7 3 6 7 1 7 10 11 13 15 17 19 19 20 20 20 21 21 21 22 22 22 23 24 25 26 26 26 26 27 27 27 27 26 25 25 24 24 24 24 24 23 23 23 24 24 24 22 19 16 16 19 24 29 34 35 34 32
2 2 4 3 4 6 5 2 2 1 1 1 1 1 3 5 4 2 3 4 5 4 4 5 5 4 3 3 7 9 7 3 1 6 9 11 13 14 16 18 19 19 19 19 20 21 22 22 23 24 25 26 27 28 28 27 27 27 28 28 27 26 26 27 26 24 23 23 24 23 23 24 24 24 25 25 23 19 17 18 21 25 31 35 35 33 30
2 2 3 3 4 4 3 1 1 2 2 2 2 2 2 3 4 3 4 6 6 6 7 8 6 3 0 2 3 7 8 8 8 11 12 14 16 16 17 18 18 18 19 19 20 21 22 23 24 24 26 27 28 29 30 29 29 29 28 28 27 27 27 27 26 24 23 23 23 23 23 23 24 24 25 25 23 18 17 19 23 28 35 37 34 29 25
2 3 4 3 3 2 1 1 1 2 3 3 2 3 3 2 4 5 5 6 7 6 6 6 4 3 1 2 1 8 13 14 14 15 16 17 18 18 17 18 19 20 20 21 22 22 23 24 24 25 26 28 29 30 30 30 30 30 29 28 28 28 28 27 26 24 23 22 22 22 22 23 24 24 25 25 22 19 19 22 26 32 37 35 29 24 20
3 3 3 3 3 1 1 3 3 2 2 4 4 5 2 2 6 7 4 6 8 7 4 3 2 2 3 3 8 14 17 18 17 18 18 18 18 18 19 19 20 22 22 23 24 24 24 25 25 26 27 28 29 31 30 30 31 31 30 29 29 28 28 27 26 24 23 22 21 21 22 24 24 24 25 24 21 19 20 23 29 34 35 31 26 22 19
3 4 4 3 2 1 1 3 3 1 2 3 4 4 2 4 9 9 4 4 8 8 6 3 2 4 6 8 12 16 19 19 19 19 18 18 18 19 20 21 22 23 23 23 24 24 25 25 26 27 28 29 31 31 31 31 31 31 31 30 29 28 28 27 26 24 22 22 21 21 22 23 25 25 25 22 19 19 21 25 29 32 30 26 23 20 17
1 2 2 3 3 1 1 4 3 2 2 2 3 5 9 10 10 10 8 6 7 8 9 8 8 10 11 13 14 16 18 19 20 20 20 21 21 21 22 22 22 23 23 23 23 24 24 25 26 27 28 29 31 32 32 33 32 31 31 30 29 29 28 28 28 26 25 24 22 21 21 23 24 23 21 19 18 20 23 26 29 29 26 22 19 17 14
1 2 3 3 3 1 3 6 4 1 0 2 4 9 14 15 13 13 13 10 7 9 10 12 14 15 16 16 17 18 19 21 22 23 23 24 24 24 24 24 23 23 24 24 24 24 24 25 26 26 27 30 31 32 33 33 31 30 31 30 30 30 30 31 31 30 29 26 22 20 20 21 21 19 18 20 21 21 24 27 29 26 22 18 15 13 11
1 2 2 0 1 2 4 7 6 4 4 6 11 14 15 17 17 15 13 12 11 13 14 15 18 18 18 19 20 21 23 25 25 27 27 27 27 26 26 26 25 25 26 26 26 26 25 25 26 26 28 30 31 32 33 32 29 29 30 31 31 32 33 33 32 31 30 25 20 17 16 16 16 17 19 20 21 24 27 28 26 22 17 14 12 10 9
2 4 4 5 6 7 8 9 9 9 11 14 19 20 16 14 15 14 12 14 15 16 16 18 20 20 20 22 23 24 26 27 28 28 28 28 29 28 28 28 27 27 28 28 29 29 27 27 27 27 28 30 32 33 32 30 29 30 31 32 33 33 32 32 31 29 25 19 15 14 14 14 16 18 21 26 28 28 26 23 21 18 16 13 11 9 7
4 6 6 8 10 12 12 14 15 16 16 17 19 19 15 13 15 17 17 17 18 19 19 20 21 22 22 23 25 26 27 28 29 29 29 29 29 29 30 29 28 29 30 31 31 31 30 29 28 28 29 30 31 31 31 30 30 31 32 33 33 31 29 27 24 19 15 14 15 16 16 16 19 24 29 30 28 25 22 20 18 16 15 12 9 7 5
4 4 3 5 11 15 18 22 23 20 18 17 19 19 18 18 20 20 20 21 22 22 22 22 23 23 22 23 25 26 27 28 29 29 30 30 30 30 31 30 29 30 31 32 31 31 30 29 28 29 30 29 29 30 31 30 31 33 34 32 29 25 21 18 15 14 15 17 18 18 19 23 26 29 27 24 23 22 20 19 18 15 13 11 9 7 5
5 7 8 13 19 21 21 21 20 18 19 21 22 21 21 22 22 22 21 22 23 24 24 24 24 24 23 24 25 26 28 29 30 31 32 32 31 31 30 29 29 30 31 31 30 28 28 28 27 27 27 27 28 30 31 32 33 32 28 23 19 17 16 16 16 16 18 20 24 27 29 29 28 26 23 21 21 20 17 16 17 17 15 14 12 10 8
7 8 9 13 15 15 15 17 19 20 22 24 25 25 25 25 25 24 23 23 23 24 23 22 22 23 24 24 25 27 29 31 32 33 33 32 32 31 30 29 30 30 30 30 28 27 27 26 25 25 24 25 26 28 30 31 29 22 16 12 12 14 15 16 18 23 28 31 32 33 33 30 27 25 23 21 21 21 19 18 18 18 17 16 14 12 10
7 7 10 13 12 11 15 22 25 24 24 25 27 28 29 29 28 27 25 23 22 21 20 19 20 23 25 26 27 29 30 31 31 31 31 31 32 31 31 31 31 31 30 29 27 27 26 24 22 21 20 20 22 24 24 20 14 9 9 10 14 18 23 28 32 34 35 33 32 31 31 29 27 24 22 21 22 24 23 21 19 18 17 15 14 12 11
9 12 17 18 15 15 19 24 28 30 29 28 28 29 31 32 31 28 24 22 21 21 21 21 22 24 27 27 27 29 30 29 29 29 29 30 31 31 31 31 31 31 30 28 27 27 24 21 19 17 16 17 18 15 7 1 8 14 19 26 32 35 37 38 37 35 32 31 29 27 27 27 27 27 26 25 24 23 21 19 17 15 14 13 11 10 9
12 17 20 20 19 21 23 26 30 34 32 29 26 27 28 26 24 22 22 23 24 25 26 27 26 25 26 27 27 28 29 28 27 27 28 29 29 30 30 29 29 29 28 28 27 25 21 18 15 14 15 12 7 4 14 21 27 32 36 39 39 37 35 34 33 31 30 28 27 26 26 27 28 28 27 26 23 20 18 16 14 12 10 9 8 7 8
15 19 21 21 22 23 25 26 28 29 28 26 26 26 24 22 21 23 25 27 27 27 28 29 27 25 25 27 27 27 28 28 27 27 28 28 28 29 29 29 29 28 27 26 25 21 18 16 14 15 14 7 12 23 27 30 33 36 37 36 36 34 33 31 30 28 26 25 25 26 26 26 25 25 24 23 22 19 16 13 11 9 7 7 6 7 8
16 19 21 21 21 21 21 22 22 23 23 23 25 27 26 25 26 28 28 27 27 26 26 27 27 26 26 27 28 28 28 29 28 27 28 29 28 29 30 29 27 25 22 20 18 16 15 14 15 17 15 13 21 27 27 30 33 33 33 34 33 31 29 27 26 25 23 22 23 24 24 23 23 22 21 20 18 16 14 12 9 7 6 6 6 6 8
17 18 19 19 18 19 19 20 24 26 24 22 24 26 25 23 23 24 24 23 23 22 23 25 26 26 26 27 28 28 28 28 27 27 27 27 27 28 29 28 25 22 19 18 16 14 14 14 17 19 17 18 24 25 25 26 27 27 29 29 26 24 23 23 23 22 20 20 22 22 21 21 20 19 17 16 14 12 10 9 7 6 5 5 5 6 8
19 19 20 19 19 20 20 21 24 25 21 19 21 22 20 18 18 19 20 21 22 23 24 24 23 24 26 26 25 25 24 24 23 23 24 24 26 28 28 25 22 20 19 17 15 14 14 15 19 20 20 24 27 26 23 22 19 19 20 20 19 18 19 21 21 19 18 19 20 20 19 19 17 16 14 12 11 9 8 7 6 5 5 5 6 7 8
19 21 20 19 19 20 20 19 20 18 16 16 19 19 18 18 19 20 22 22 22 21 21 20 19 20 21 20 19 18 19 20 21 22 24 26 27 28 26 24 23 22 19 15 14 15 17 19 21 24 27 29 27 23 20 17 15 14 14 14 15 15 17 19 20 19 19 20 19 18 18 17 15 13 12 10 8 7 5 4 4 4 5 6 7 7 8
21 20 18 17 16 16 16 16 17 16 15 15 17 17 16 17 18 19 20 18 16 16 17 15 15 15 15 14 15 16 18 19 20 20 21 22 23 24 23 20 16 13 9 9 12 17 21 25 29 31 32 28 23 20 18 14 12 11 11 12 13 14 15 17 19 19 20 20 18 17 17 15 13 11 9 6 5 3 3 3 3 4 5 6 7 7 7
20 17 15 14 14 14 15 16 15 14 14 14 14 15 15 14 14 15 15 12 12 14 13 11 10 11 12 12 13 13 13 13 12 12 11 10 11 12 12 9 10 14 15 17 20 24 28 31 33 32 28 23 20 19 16 12 10 9 10 11 13 13 13 16 18 18 18 17 17 17 16 13 11 9 6 4 2 2 2 3 3 4 5 6 7 8 8
16 15 13 13 13 14 15 16 15 14 14 14 14 15 15 13 12 12 9 7 7 8 6 4 5 7 7 7 7 5 4 3 1 2 5 5 5 4 7 12 17 20 20 21 23 28 30 29 26 23 21 20 19 17 13 10 8 8 10 12 13 12 11 14 16 16 16 16 17 16 14 11 9 7 4 2 1 2 2 2 3 4 6 7 7 7 8
14 15 15 15 15 16 17 18 17 16 15 14 13 11 9 7 5 4 2 1 2 3 4 4 4 4 3 3 2 2 4 6 9 12 16 17 18 19 20 21 22 23 23 23 24 25 24 21 19 18 18 17 15 13 11 8 7 9 12 13 12 11 11 12 13 14 16 17 17 14 11 9 7 4 2 1 2 2 2 2 4 5 6 7 7 7 7
14 15 16 16 16 16 18 18 17 14 11 9 8 7 7 7 7 7 7 7 8 9 9 8 7 7 7 7 8 9 11 14 15 17 20 22 25 28 28 27 26 26 25 23 23 21 19 17 17 17 16 14 12 11 9 7 8 12 13 12 10 11 12 12 12 14 17 18 15 11 8 7 5 3 1 1 1 1 2 3 5 5 7 7 7 6 7
14 15 15 15 16 16 14 12 10 7 6 8 10 11 11 11 11 11 12 12 13 13 12 12 12 13 14 16 17 18 19 20 21 22 25 28 31 33 33 31 28 26 25 24 22 20 18 16 16 15 14 12 11 9 8 9 11 13 13 11 11 11 12 12 13 15 17 16 12 8 7 5 3 2 1 0 1 2 3 4 5 6 7 7 7 7 6
15 16 16 16 15 12 7 5 5 6 8 11 13 14 15 16 16 17 18 19 20 19 19 20 22 23 24 26 28 28 28 27 27 28 31 34 37 38 37 35 33 30 28 26 24 20 17 15 13 13 13 13 11 10 10 12 13 12 11 9 9 8 9 11 13 15 15 12 9 7 6 4 3 2 1 1 1 2 4 6 6 7 8 8 8 8 7
15 16 15 12 7 5 6 7 8 10 14 16 18 20 21 22 23 23 24 24 24 23 24 25 27 28 28 30 31 32 32 31 31 32 34 36 39 39 38 37 36 34 32 30 27 24 20 17 14 13 14 13 12 12 12 12 11 9 8 7 6 6 8 11 13 13 12 10 8 7 6 5 3 2 1 2 3 4 5 6 7 8 8 9 10 9 7
13 11 7 5 7 8 9 12 16 20 22 23 24 24 25 25 25 25 26 25 25 24 24 26 26 26 26 27 29 31 31 30 30 32 33 35 37 39 39 38 36 35 32 30 27 25 24 21 18 16 16 15 14 12 11 9 7 5 5 5 5 7 9 11 12 11 10 9 8 7 6 4 3 2 2 3 4 5 6 7 7 8 9 9 9 9 8
8 5 7 10 12 13 16 21 24 24 25 26 25 25 24 24 24 25 25 25 24 24 24 25 25 26 26 26 27 28 28 27 27 29 30 32 33 35 35 34 32 30 28 25 24 25 24 22 19 18 17 16 13 11 9 7 6 4 4 4 6 7 9 9 9 9 8 8 7 6 5 4 3 3 4 5 5 5 6 7 8 9 9 9 9 9 8
7 9 12 14 16 19 22 25 25 24 23 23 23 22 22 21 22 22 23 23 22 23 23 23 24 25 25 25 25 26 26 25 25 26 27 27 29 30 31 30 27 24 22 21 21 21 21 20 20 19 18 15 12 10 8 7 6 5 5 5 7 8 8 7 7 7 7 7 6 5 5 4 4 4 5 5 5 5 6 7 7 7 7 8 8 9 8
8 12 14 17 19 21 22 22 22 21 20 19 20 20 19 19 19 20 21 22 21 21 21 21 22 22 23 23 23 24 23 23 24 24 24 25 26 28 28 28 25 21 19 19 19 18 18 18 19 19 18 16 13 11 9 7 6 6 5 5 5 6 6 6 5 5 6 6 6 5 5 5 5 4 4 4 4 5 5 5 5 6 7 7 8 9 9
10 14 16 18 19 20 20 19 19 18 17 17 18 18 19 19 19 20 21 21 20 20 20 20 20 21 21 22 22 22 22 22 22 22 22 23 24 25 25 24 21 18 16 16 15 16 17 17 18 18 17 16 14 13 11 9 8 7 6 5 4 4 4 4 4 4 4 5 5 5 5 5 4 3 3 2 3 3 3 3 4 5 7 7 8 9 9
12 15 16 16 17 18 17 16 16 16 16 17 17 17 18 18 19 20 20 21 21 21 21 21 21 20 20 20 20 21 21 21 21 21 21 22 22 21 21 20 18 16 14 13 13 14 15 15 16 15 15 14 13 12 10 9 8 8 7 6 5 5 4 3 3 3 3 4 4 4 4 4 3 2 2 1 0 1 2 3 5 6 6 7 8 9 10
12 15 15 15 15 15 14 14 14 14 15 16 16 16 16 17 18 19 19 20 20 21 21 20 20 20 19 19 19 20 20 20 20 19 19 19 19 19 18 17 15 14 13 12 12 12 13 13 14 13 12 11 11 10 9 8 7 6 5 5 4 4 3 3 3 3 3 3 4 4 4 4 4 4 4 3 3 2 3 3 4 5 5 6 7 8 9
11 14 14 14 14 13 12 11 12 13 14 14 15 14 14 15 16 16 17 18 19 19 20 20 20 19 19 19 19 19 19 18 17 17 17 17 17 17 15 14 13 13 12 11 10 10 11 11 11 10 9 9 8 8 7 7 6 6 5 4 4 3 3 3 3 3 3 4 4 4 4 4 4 4 3 2 1 1 3 3 4 5 6 6 7 7 8
9 12 13 12 11 10 10 10 11 13 13 13 13 13 13 14 14 14 15 16 17 18 18 19 19 19 19 18 18 18 17 16 16 16 16 16 16 15 13 12 11 11 10 9 9 9 9 9 8 8 7 7 6 6 6 6 5 5 4 4 3 3 3 3 3 3 4 4 3 3 3 3 3 3 3 3 4 5 6 6 7 7 8 9 9 9 9
7 9 10 10 9 9 10 11 12 12 12 11 11 12 12 12 12 13 14 14 15 15 16 16 16 17 17 17 17 17 17 16 15 16 16 15 14 13 12 11 11 10 9 8 8 7 7 7 6 6 6 6 5 5 5 4 4 4 3 3 3 3 3 3 3 4 4 4 4 3 4 4 5 6 6 6 7 8 9 10 10 10 10 11 11 11 11
11 10 9 8 8 10 11 12 11 10 9 9 9 10 10 10 10 10 11 11 12 13 14 14 15 15 16 16 16 16 15 15 15 15 15 15 14 14 13 12 12 11 10 9 8 7 7 6 5 5 5 5 5 5 4 4 3 3 3 3 3 3 3 3 4 4 4 4 4 4 5 6 6 6 7 8 8 9 10 11 11 11 11 12 12 13 13
11 11 10 10 9 10 11 10 9 7 7 6 7 7 7 7 8 8 8 9 11 12 13 13 14 15 15 15 15 15 15 14 14 15 15 14 14 14 14 13 12 11 11 10 9 8 7 6 5 5 5 5 5 5 5 4 4 3 3 3 4 4 5 5 5 5 5 5 5 5 6 6 6 6 7 7 8 9 10 10 9 10 11 13 15 15 15
7 8 8 9 8 8 8 8 6 5 4 4 5 5 5 6 7 7 8 9 10 11 12 12 12 13 14 14 14 14 13 13 13 14 14 13 13 13 13 13 12 12 11 11 10 10 9 8 6 5 5 5 5 4 4 4 4 3 3 3 3 4 5 5 5 5 5 5 5 5 6 6 6 6 7 7 7 8 8 7 7 8 11 14 16 16 17
7 7 7 7 7 6 6 5 4 3 3 3 3 4 4 5 6 6 7 8 9 9 10 10 11 12 12 12 12 12 11 11 11 12 12 12 12 12 12 12 13 12 12 11 11 11 10 10 9 8 6 5 4 2 2 2 2 3 2 2 2 3 3 4 4 4 4 4 4 4 4 5 6 6 6 5 5 5 4 4 6 9 12 14 15 16 17
12 9 8 7 6 6 5 5 5 4 4 4 3 3 4 4 5 5 5 6 7 7 8 8 9 10 10 10 10 10 10 10 11 11 11 12 11 11 11 12 12 12 12 12 12 12 12 12 11 11 10 8 6 3 3 2 2 2 3 3 4 4 4 3 3 3 3 3 3 3 4 4 4 4 4 4 3 3 4 6 9 12 13 14 14 14 14
Wind_Direction
239 241 244 197 208 247 244 246 255 251 233 206 212 232 207 166 229 249 177 189 218 213 210 227 226 214 207 209 208 187 165 158 153 143 131 116 99 82 64 49 39 29 21 13 7 359 351 345 339 335 332 330 329 327 325 323 321 318 315 315 316 317 318 319 315 308 298 282 269 262 259 258 258 258 261 266 270 273 275 274 271 263 251 243 242 242 241
252 238 235 193 212 242 245 241 240 241 244 235 234 243 223 209 244 271 149 210 226 211 216 240 247 203 187 192 194 179 161 155 154 146 131 112 92 73 57 42 31 19 10 2 354 347 342 337 332 328 325 323 322 320 319 317 314 311 309 307 306 306 307 306 304 302 300 296 289 284 277 271 264 256 259 266 271 273 274 273 269 262 251 242 240 239 239
262 249 243 226 224 239 249 249 245 243 246 242 242 248 231 232 261 269 203 234 247 235 238 260 279 205 187 193 186 167 156 156 154 143 124 103 79 59 44 33 22 12 4 357 350 344 338 332 328 324 321 319 318 316 315 314 313 312 311 309 306 304 302 299 297 296 295 293 290 288 287 287 285 278 273 273 272 268 266 267 266 261 251 242 237 235 237
255 227 244 252 251 258 255 249 247 246 243 234 227 224 202 210 240 241 225 239 255 248 247 255 250 238 230 209 174 156 155 157 151 134 109 84 52 33 21 14 8 3 358 354 350 345 338 332 327 322 318 316 314 313 311 310 310 310 310 310 308 306 304 301 299 295 293 291 289 287 287 287 288 288 285 280 274 266 264 265 263 256 247 240 236 235 235
258 218 245 276 312 287 262 236 229 240 239 232 227 222 208 207 220 232 235 247 281 315 272 251 230 221 225 198 159 150 156 158 152 130 91 50 23 11 4 359 355 353 350 347 345 342 337 332 327 323 320 317 313 311 309 308 308 308 309 309 307 306 306 304 303 301 297 293 289 288 287 285 284 283 283 281 276 268 266 267 261 252 242 234 233 234 232
263 335 36 356 268 260 257 112 230 249 249 246 244 245 245 232 236 260 271 278 317 315 244 231 163 126 122 129 140 153 166 169 160 129 69 24 4 355 350 348 346 344 342 340 338 336 332 328 325 322 321 317 314 311 309 308 308 308 307 306 305 305 306 306 305 304 300 296 291 288 285 282 280 277 276 277 276 271 265 261 256 248 238 231 230 230 228
266 39 64 239 243 253 311 20 282 250 258 258 251 261 359 349 305 294 288 280 275 214 167 113 88 87 64 49 76 112 180 182 172 136 27 357 347 341 338 337 337 337 336 333 331 330 327 325 323 321 319 316 313 311 311 310 309 309 307 305 303 303 304 305 305 302 298 294 290 287 283 280 276 274 272 271 273 270 261 255 251 244 236 230 227 224 222
208 147 184 211 270 315 306 308 330 265 274 282 227 175 52 18 340 305 308 323 21 62 87 75 59 46 36 50 75 70 80 170 181 274 342 340 332 329 329 329 330 330 329 328 325 323 322 321 321 320 318 315 313 312 312 311 310 309 307 304 304 303 302 302 301 298 293 289 286 284 282 278 274 271 269 267 267 265 259 253 249 243 235 229 223 220 218
181 216 220 233 315 309 275 268 8 322 289 9 303 218 63 21 353 352 15 18 23 17 21 29 29 31 36 74 85 66 49 59 331 319 324 324 319 319 321 322 323 324 322 320 318 317 316 316 318 318 316 314 313 312 311 311 310 308 305 304 305 304 300 295 294 293 289 285 283 281 279 276 271 268 267 265 264 259 252 248 245 238 230 224 220 217 214
157 224 254 261 279 280 251 221 340 289 246 256 281 242 117 50 12 1 10 18 17 8 10 16 16 19 3 179 101 47 14 353 336 323 319 318 318 318 318 317 317 316 315 313 312 312 312 313 316 317 315 313 312 311 311 311 309 306 304 304 303 299 293 290 290 289 286 283 280 277 273 271 268 265 263 262 259 252 245 245 244 235 225 218 213 209 206
166 210 249 241 227 247 273 256 313 306 251 213 207 231 201 86 12 353 353 4 8 6 7 13 14 355 300 227 327 348 338 330 325 320 318 317 316 313 312 313 312 311 310 309 308 308 308 311 314 314 313 311 310 309 309 309 306 304 304 303 300 294 291 290 289 286 282 280 277 273 267 263 261 260 258 256 252 244 239 241 239 230 219 210 202 197 198
195 208 244 243 232 257 278 275 302 312 215 188 218 245 218 40 346 339 346 350 356 0 355 5 23 303 285 298 314 317 318 317 316 315 314 313 311 308 307 307 307 307 306 306 305 305 306 309 312 312 311 309 307 307 307 305 302 302 303 301 298 294 292 290 287 283 280 278 275 272 265 257 254 253 251 247 242 235 234 237 233 220 208 199 193 190 192
213 218 244 262 263 241 251 303 324 27 161 195 230 255 327 328 314 320 331 334 345 345 321 287 268 279 290 303 308 309 311 312 312 312 311 309 306 304 305 306 307 306 305 303 302 303 305 307 309 309 308 306 306 306 305 301 299 301 302 300 297 294 292 288 285 283 280 276 274 273 267 256 250 248 245 238 229 228 233 232 221 205 191 184 182 182 185
240 214 236 284 290 165 79 353 7 114 172 234 256 305 315 303 294 300 299 299 322 324 301 281 281 293 303 310 312 313 313 311 311 311 310 308 305 302 302 305 307 307 305 303 302 303 305 306 306 306 305 304 305 305 301 297 298 301 302 300 296 292 289 288 286 284 281 277 273 271 266 255 248 244 237 227 224 229 227 215 199 186 178 177 179 182 191
280 214 214 276 286 122 54 12 8 83 221 311 325 323 316 309 301 292 284 286 308 316 304 296 297 302 306 309 312 314 312 310 309 308 308 307 305 303 301 301 304 306 304 302 303 304 305 306 305 305 304 304 305 302 297 295 297 299 300 299 295 291 288 287 285 283 281 278 271 265 260 251 241 234 227 223 222 217 202 189 181 176 175 178 181 185 194
249 216 191 211 92 100 31 350 326 288 273 306 324 324 315 310 310 301 286 289 309 319 315 310 309 307 307 308 310 311 309 308 307 307 306 306 304 303 301 299 301 303 302 301 302 303 303 305 306 305 306 306 303 298 295 294 295 296 297 296 292 289 286 284 283 281 279 274 263 251 243 234 228 227 222 209 194 182 175 171 170 169 167 170 176 180 185
260 268 272 287 292 299 314 316 305 292 285 297 313 315 304 301 313 317 307 303 311 317 316 314 312 310 309 310 309 308 306 305 304 304 304 303 302 302 300 299 301 302 301 301 302 301 301 304 305 306 307 305 300 296 296 295 293 292 292 290 288 286 283 280 279 277 271 258 236 222 217 219 223 215 194 175 164 161 160 158 157 157 159 166 173 173 173
302 282 266 273 285 297 309 310 308 306 301 305 318 319 311 308 316 319 315 312 313 314 313 311 307 304 305 306 304 303 303 302 301 301 300 299 299 298 298 299 300 299 298 298 299 299 300 302 305 307 307 302 298 296 295 293 291 291 291 289 285 282 278 274 271 262 242 218 210 211 210 205 194 177 164 157 152 150 149 149 150 153 154 156 159 159 164
302 284 279 304 300 303 309 309 309 312 313 317 324 323 318 316 316 313 310 309 310 309 308 305 301 299 299 299 298 298 299 298 298 298 298 297 297 296 297 298 298 298 297 297 297 297 298 300 305 307 304 300 297 296 296 296 296 297 294 288 281 274 265 255 243 227 214 206 199 188 174 164 157 151 149 148 145 143 145 147 145 142 141 138 136 136 141
272 278 291 298 297 298 302 304 306 310 313 316 318 317 314 312 309 306 303 301 302 301 300 299 298 297 296 296 298 299 299 299 298 297 296 297 298 298 297 297 297 298 298 297 296 295 295 299 305 306 302 299 298 298 298 300 300 296 290 280 265 252 239 225 214 202 188 172 157 145 139 137 136 136 138 141 140 138 136 133 129 126 124 120 114 109 103
287 284 288 294 297 300 301 302 303 304 307 310 311 311 310 308 305 304 301 296 294 294 293 293 293 293 294 296 297 299 299 298 296 294 294 295 296 295 295 295 296 297 297 296 294 292 293 299 304 303 299 297 297 298 299 301 301 293 278 256 233 221 209 192 174 156 144 137 133 130 129 129 130 132 134 134 130 125 121 118 117 115 111 105 97 88 77
294 294 304 308 308 302 297 299 301 302 303 304 304 304 305 305 304 305 301 294 290 288 287 288 289 289 291 294 296 297 297 294 293 292 292 293 292 292 292 293 294 294 295 294 292 290 292 298 302 299 292 289 294 300 303 304 297 269 229 194 168 154 146 139 135 132 130 128 129 129 128 128 130 130 129 126 122 120 118 115 110 103 96 89 80 69 58
296 294 298 301 298 290 290 293 296 298 299 298 296 296 299 300 299 299 296 292 292 289 286 287 287 287 289 292 295 296 295 293 293 293 293 293 293 292 292 293 292 292 292 290 289 289 291 294 295 286 273 279 296 307 310 150 141 143 139 132 127 125 125 126 127 128 129 128 128 127 126 126 126 125 124 122 119 115 111 106 101 93 85 78 70 59 48
294 290 292 295 291 288 288 289 291 296 298 298 295 296 298 297 292 290 288 289 292 292 291 291 290 290 291 292 294 294 293 293 295 295 296 295 294 293 293 292 290 290 289 288 289 288 285 283 278 259 254 273 301 102 119 119 120 120 119 118 120 122 124 126 126 126 125 123 123 125 126 127 127 126 126 123 119 113 108 103 99 93 86 78 67 52 40
288 288 293 295 291 289 290 289 292 298 303 303 300 299 297 292 285 284 286 287 289 290 291 292 293 293 293 292 292 292 292 293 295 296 296 295 294 293 293 291 290 289 288 288 288 282 272 268 257 238 234 214 131 127 125 121 120 119 118 118 121 124 126 125 124 123 122 122 125 128 129 129 128 126 124 120 116 115 116 114 110 102 88 74 57 41 30
290 292 298 298 295 295 295 294 295 301 304 302 297 294 291 287 283 283 285 286 287 289 290 291 293 294 292 291 291 291 291 292 294 294 293 292 292 293 294 293 292 288 284 286 284 269 259 255 237 221 210 169 140 135 132 129 127 125 123 123 125 126 127 127 127 129 130 130 130 130 129 128 127 124 120 116 114 115 119 119 114 103 85 67 47 30 19
296 299 303 300 296 297 298 297 299 301 302 300 296 294 291 287 284 284 286 288 290 292 293 293 294 294 292 291 290 290 289 289 288 288 288 289 292 295 297 298 296 293 290 289 276 257 249 240 220 208 193 163 149 144 139 137 136 133 131 131 131 133 136 138 140 140 138 134 132 131 129 128 126 123 120 118 115 113 112 110 108 99 84 62 37 18 11
300 304 306 302 297 297 299 299 300 302 305 305 303 300 297 295 294 293 294 297 298 297 297 297 296 295 293 292 291 290 290 290 289 290 291 294 296 298 299 299 298 299 298 287 265 245 234 222 208 195 175 158 152 149 144 144 146 145 143 142 142 146 149 150 150 148 145 140 137 134 132 130 128 127 126 124 120 115 108 104 102 88 65 43 25 10 3
306 309 311 306 302 304 306 305 304 308 313 311 308 307 307 307 305 301 300 301 302 302 301 302 301 300 298 298 298 297 297 297 297 296 296 296 295 295 296 297 297 299 295 278 253 232 216 202 187 172 161 157 156 154 153 155 158 162 164 163 160 158 157 156 157 156 150 146 144 140 137 136 135 134 132 128 122 114 99 91 84 62 38 24 14 3 355
312 315 316 312 311 315 316 315 317 320 321 317 314 313 310 305 302 300 302 306 310 309 307 306 306 305 302 299 298 296 295 296 296 295 294 294 291 291 293 290 281 272 255 220 199 190 184 175 164 158 158 160 162 164 167 170 170 174 183 186 180 173 166 162 163 161 153 148 145 144 143 143 142 142 140 135 127 110 78 59 46 28 16 9 4 356 348
316 322 324 320 320 323 324 325 327 326 325 327 326 322 316 311 307 308 311 316 317 313 307 300 297 298 297 293 291 292 293 294 295 296 297 294 288 287 283 250 196 173 161 157 156 157 157 155 154 155 159 163 167 169 171 173 175 183 194 195 189 183 174 169 168 165 159 154 152 150 151 153 153 153 154 148 128 91 55 36 12 1 358 354 351 347 341
323 328 332 332 331 330 329 330 331 327 327 332 330 325 322 320 316 315 316 313 309 309 308 304 304 307 306 302 300 300 299 298 324 69 78 86 101 129 155 159 153 145 137 133 132 134 139 143 147 154 162 167 169 171 174 178 186 195 195 189 184 180 174 171 172 170 166 163 161 159 160 161 160 161 162 144 88 51 36 14 354 350 348 344 341 338 334
333 330 333 335 334 331 327 327 328 326 330 336 335 331 332 338 339 343 1 14 5 17 30 28 16 6 356 352 15 80 106 109 103 95 90 89 92 99 110 125 132 131 126 122 120 123 129 135 140 148 159 165 169 175 184 191 196 193 189 187 185 180 173 171 174 173 170 169 168 166 165 166 166 168 162 91 51 45 27 352 342 344 342 336 334 331 329
330 325 327 329 329 325 321 321 324 328 340 3 19 27 37 50 60 65 67 63 57 56 56 54 56 61 65 72 83 93 99 99 94 88 87 88 89 91 97 108 118 120 116 113 113 115 120 128 137 147 156 165 172 179 187 195 193 184 179 176 175 172 171 174 177 176 172 170 169 168 167 169 171 167 139 83 44 24 359 344 340 341 338 335 334 335 331
329 331 334 332 331 331 329 329 336 354 39 62 65 66 69 71 75 78 78 76 75 78 80 82 85 88 89 89 89 88 89 90 88 86 86 86 86 88 94 100 104 105 104 105 106 109 114 124 137 148 157 164 167 168 173 180 177 169 164 166 169 169 170 171 171 170 170 169 169 170 170 170 170 165 146 112 332 337 340 336 334 335 336 339 344 344 339
336 339 337 333 335 346 8 39 57 76 85 83 80 80 81 82 83 83 82 81 81 82 82 82 82 83 84 84 83 82 83 85 87 87 85 82 81 84 90 93 93 93 95 94 92 95 105 116 130 144 153 158 161 161 163 165 162 158 159 166 167 162 162 162 162 166 170 172 173 173 172 172 176 179 191 264 297 316 323 323 326 330 334 340 345 347 344
341 337 336 341 0 48 79 80 81 86 88 86 86 86 84 82 81 79 77 76 75 73 71 70 70 71 72 74 75 76 75 76 78 79 78 78 79 82 84 84 84 85 85 83 81 85 93 99 109 125 136 142 148 150 148 149 151 156 162 160 146 140 151 157 160 166 171 173 175 176 177 180 185 195 237 283 297 310 316 317 322 327 329 333 339 345 348
347 343 355 50 93 100 91 88 91 93 91 89 87 85 82 80 79 77 75 73 70 68 67 66 65 64 64 66 69 72 71 69 69 69 68 70 73 75 75 73 73 74 74 72 74 80 88 96 107 117 121 124 129 132 133 137 147 156 159 154 149 149 152 153 156 165 171 173 175 179 184 191 206 239 275 289 298 307 311 314 318 323 329 335 341 346 351
12 56 93 104 107 103 101 101 100 96 93 91 88 83 80 79 78 77 76 74 72 71 70 71 70 68 65 62 64 67 68 66 65 65 64 65 68 70 71 71 70 70 71 71 71 73 77 84 93 102 106 109 111 112 114 120 131 143 156 165 163 158 154 155 161 170 175 177 182 191 205 218 237 263 278 287 294 299 305 313 320 327 335 344 349 353 359
66 104 109 109 110 108 107 106 101 96 92 89 84 81 80 77 75 76 76 74 72 71 70 71 72 72 69 66 65 66 67 66 66 67 69 70 71 73 75 75 73 74 76 76 76 75 77 79 83 88 91 93 93 92 93 97 105 119 137 151 150 148 150 158 169 178 186 192 198 211 227 240 251 263 271 280 289 296 306 318 328 337 348 356 1 6 10
98 113 112 112 113 112 109 106 102 97 93 87 82 81 79 74 72 74 75 74 73 71 68 68 70 72 73 73 72 71 71 70 68 67 68 69 69 70 71 71 71 73 77 80 84 88 90 90 89 90 91 92 92 90 86 84 86 95 110 131 143 146 150 159 174 190 203 211 218 228 237 242 248 255 262 274 287 300 313 328 341 355 4 8 13 15 15
118 122 119 117 117 115 112 109 105 100 95 89 84 81 78 75 74 76 77 76 75 72 69 67 68 69 71 73 74 74 74 73 72 70 69 67 67 67 68 67 67 68 73 79 86 91 93 94 94 94 94 93 91 88 85 86 87 89 94 104 120 132 146 165 185 202 213 218 222 223 223 223 228 234 245 267 288 310 339 4 16 20 21 21 21 19 16
134 130 126 124 124 121 118 115 109 102 96 91 86 81 78 77 77 79 80 80 78 75 73 71 68 66 66 68 70 72 72 72 73 73 73 71 69 69 69 69 69 67 66 69 73 77 81 84 86 87 88 90 90 89 90 94 96 96 98 100 101 106 117 134 147 161 177 189 194 193 195 200 207 207 202 200 150 56 54 47 41 35 31 27 25 22 20
148 142 135 132 132 130 126 119 111 102 97 94 90 84 79 77 77 77 78 78 77 76 75 73 70 68 66 65 66 67 68 69 70 71 73 74 73 70 67 66 66 64 62 60 60 63 67 70 71 72 75 80 85 88 91 94 97 101 106 110 111 114 123 131 143 159 174 181 184 188 191 190 181 165 154 145 130 103 72 47 35 27 19 15 17 18 20
158 154 145 139 137 137 133 122 111 103 99 95 92 86 79 74 73 72 71 70 70 69 66 64 63 61 60 60 61 62 63 66 67 68 68 68 67 64 61 61 61 58 54 50 49 51 57 60 61 64 66 68 71 76 78 81 86 92 98 105 114 123 132 145 164 175 176 177 181 181 175 167 163 159 154 147 124 55 27 16 6 359 357 2 9 13 17
167 166 158 149 145 143 135 121 111 106 102 97 92 85 77 71 67 65 62 60 60 59 57 55 54 52 50 51 52 52 52 55 60 62 62 61 59 55 52 51 52 52 48 43 41 42 43 42 42 45 51 56 59 63 65 66 70 74 78 86 98 107 121 138 148 149 149 150 150 145 132 120 111 101 88 71 53 41 36 32 24 18 19 24 30 33 33
139 156 158 154 148 139 126 117 112 110 106 99 92 85 77 67 61 58 54 52 52 53 53 53 51 50 49 48 47 46 44 42 44 49 52 52 52 51 47 44 43 41 39 35 34 32 31 28 24 21 21 24 30 39 47 53 61 66 70 75 79 82 92 108 118 123 126 123 113 97 86 79 75 75 73 66 57 51 48 43 37 36 40 44 47 46 43
110 119 125 130 133 129 123 119 116 113 107 96 85 80 74 65 57 54 52 50 50 52 52 51 50 50 49 47 46 47 46 43 42 44 43 42 42 43 41 39 37 35 33 31 28 24 19 16 11 7 4 359 358 3 10 17 27 40 47 54 62 67 77 90 101 104 102 95 88 81 78 79 79 77 73 66 60 56 52 47 42 41 44 47 47 44 40
116 119 123 129 135 135 131 126 122 118 111 97 83 75 70 62 55 53 53 50 46 45 45 45 44 44 44 42 42 43 44 44 45 46 44 40 38 37 35 34 32 30 28 28 28 26 21 16 8 1 355 348 343 343 346 350 358 14 32 43 50 52 53 64 82 93 90 77 65 64 68 72 76 76 74 68 62 59 56 51 43 41 44 45 42 38 36
146 142 142 143 144 143 140 135 133 131 124 109 92 82 72 58 47 45 49 49 42 37 37 38 38 38 40 40 39 40 42 43 44 45 43 39 37 35 33 32 32 30 28 27 25 22 22 23 20 12 2 354 348 342 336 336 346 5 28 43 53 61 61 60 66 80 91 86 74 66 63 63 69 78 78 70 61 59 58 49 38 40 48 49 44 38 34
199 182 170 163 159 155 153 155 158 161 159 143 115 91 75 59 41 34 40 47 44 37 33 32 33 36 39 40 40 42 46 47 46 45 42 38 36 36 35 33 32 30 29 29 27 23 22 24 24 21 20 17 10 8 15 15 15 26 37 37 43 71 94 89 71 65 75 85 83 76 69 67 73 82 83 74 66 62 56 44 45 54 59 56 50 43 38
229 221 210 201 194 184 178 183 189 193 191 181 156 114 83 64 44 30 31 44 51 46 38 32 31 36 41 45 47 49 51 49 45 42 38 35 35 37 38 37 36 34 32 31 30 28 27 26 23 23 26 30 33 46 71 87 75 55 52 53 55 70 93 107 98 77 66 68 73 76 74 75 80 89 89 78 62 48 45 53 60 63 63 60 56 50 44